Time,TemperatureF,DewpointF,PressureIn,WindDirection,WindDirectionDegrees,WindSpeedMPH,WindSpeedGustMPH,Humidity,HourlyPrecipIn,Conditions,Clouds,dailyrainin,SoftwareType,DateUTC
2013-09-30 00:00:00,51.4,51.4,29.77,NNW,340,0.0,0.0,100,0.00,,,0.00,VWS V13.01,2013-09-30 04:00:00,
2013-09-30 00:02:00,51.8,51.8,29.77,NNW,341,0.0,0.0,100,0.00,,,0.00,VWS V13.01,2013-09-30 04:02:00,
2013-09-30 00:06:00,52.0,52.0,29.74,NNW,341,0.0,0.0,100,0.00,,,0.00,VWS V13.01,2013-09-30 04:06:00,
2013-09-30 00:08:00,51.6,51.6,29.74,NNW,341,0.0,0.0,100,0.00,,,0.00,VWS V13.01,2013-09-30 04:08:00,
2013-09-30 00:12:00,51.6,51.6,29.74,NNW,344,0.0,0.0,100,0.00,,,0.00,VWS V13.01,2013-09-30 04:12:00,
2013-09-30 00:18:00,51.8,51.8,29.74,NNW,344,0.0,0.0,100,0.00,,,0.00,VWS V13.01,2013-09-30 04:18:00,
2013-09-30 00:24:00,52.2,52.2,29.74,North,1,0.0,0.0,100,0.00,,,0.00,VWS V13.01,2013-09-30 04:24:00,
2013-09-30 00:30:00,51.3,51.3,29.74,North,1,0.0,0.0,100,0.00,,,0.00,VWS V13.01,2013-09-30 04:30:00,
2013-09-30 00:36:00,51.1,51.1,29.77,North,1,0.0,0.0,100,0.00,,,0.00,VWS V13.01,2013-09-30 04:36:00,
2013-09-30 00:42:00,50.9,50.9,29.77,North,1,0.0,0.0,100,0.00,,,0.00,VWS V13.01,2013-09-30 04:42:00,
2013-09-30 00:48:00,50.7,50.7,29.77,North,1,0.0,0.0,100,0.00,,,0.00,VWS V13.01,2013-09-30 04:48:00,
2013-09-30 00:54:00,50.5,50.5,29.77,North,1,0.0,0.0,100,0.00,,,0.00,VWS V13.01,2013-09-30 04:54:00,
2013-09-30 01:00:00,50.9,50.9,29.77,North,1,0.0,0.0,100,0.00,,,0.00,VWS V13.01,2013-09-30 05:00:00,
2013-09-30 01:06:00,50.9,50.9,29.77,North,1,0.0,0.0,100,0.00,,,0.00,VWS V13.01,2013-09-30 05:06:00,
2013-09-30 01:12:00,50.2,50.2,29.77,North,1,0.0,0.0,100,0.00,,,0.00,VWS V13.01,2013-09-30 05:12:00,
2013-09-30 01:18:00,50.0,50.0,29.77,North,1,0.0,0.0,100,0.00,,,0.00,VWS V13.01,2013-09-30 05:18:00,
2013-09-30 01:24:00,49.8,49.8,29.77,North,1,0.0,0.0,100,0.00,,,0.00,VWS V13.01,2013-09-30 05:24:00,
2013-09-30 01:30:00,49.8,49.8,29.77,North,1,0.0,0.0,100,0.00,,,0.00,VWS V13.01,2013-09-30 05:30:00,
2013-09-30 01:36:00,49.6,49.6,29.77,North,1,0.0,0.0,100,0.00,,,0.00,VWS V13.01,2013-09-30 05:36:00,
2013-09-30 01:42:00,49.3,49.3,29.77,North,1,0.0,0.0,100,0.00,,,0.00,VWS V13.01,2013-09-30 05:42:00,
2013-09-30 01:48:00,49.1,49.1,29.77,North,1,0.0,0.0,100,0.00,,,0.00,VWS V13.01,2013-09-30 05:48:00,
2013-09-30 01:54:00,49.3,49.3,29.77,North,1,0.0,0.0,100,0.00,,,0.00,VWS V13.01,2013-09-30 05:54:00,
2013-09-30 02:00:00,49.6,49.6,29.77,North,1,0.0,0.0,100,0.00,,,0.00,VWS V13.01,2013-09-30 06:00:00,
2013-09-30 02:06:00,49.3,49.3,29.77,North,1,0.0,0.0,100,0.00,,,0.00,VWS V13.01,2013-09-30 06:06:00,
2013-09-30 02:12:00,48.9,48.9,29.77,North,1,0.0,0.0,100,0.00,,,0.00,VWS V13.01,2013-09-30 06:12:00,
2013-09-30 02:18:00,48.7,48.7,29.77,North,1,0.0,0.0,100,0.00,,,0.00,VWS V13.01,2013-09-30 06:18:00,
2013-09-30 02:24:00,48.7,48.7,29.74,North,1,0.0,0.0,100,0.00,,,0.00,VWS V13.01,2013-09-30 06:24:00,
2013-09-30 02:30:00,48.9,48.9,29.74,North,1,0.0,0.0,100,0.00,,,0.00,VWS V13.01,2013-09-30 06:30:00,
2013-09-30 02:36:00,49.1,49.1,29.74,North,1,0.0,0.0,100,0.00,,,0.00,VWS V13.01,2013-09-30 06:36:00,
2013-09-30 02:42:00,49.1,49.1,29.74,North,1,0.0,0.0,100,0.00,,,0.00,VWS V13.01,2013-09-30 06:42:00,
2013-09-30 02:48:00,48.7,48.7,29.74,North,1,0.0,0.0,100,0.00,,,0.00,VWS V13.01,2013-09-30 06:48:00,
2013-09-30 02:54:00,48.4,48.4,29.74,North,1,0.0,0.0,100,0.00,,,0.00,VWS V13.01,2013-09-30 06:54:00,
2013-09-30 03:00:00,48.6,48.6,29.74,North,1,0.0,0.0,100,0.00,,,0.00,VWS V13.01,2013-09-30 07:00:00,
2013-09-30 03:06:00,48.4,48.4,29.74,North,1,0.0,0.0,100,0.00,,,0.00,VWS V13.01,2013-09-30 07:06:00,
2013-09-30 03:12:00,48.4,48.4,29.74,North,1,0.0,0.0,100,0.00,,,0.00,VWS V13.01,2013-09-30 07:12:00,
2013-09-30 03:18:00,48.2,48.2,29.74,North,1,0.0,0.0,100,0.00,,,0.00,VWS V13.01,2013-09-30 07:18:00,
2013-09-30 03:24:00,48.2,48.2,29.74,North,1,0.0,0.0,100,0.00,,,0.00,VWS V13.01,2013-09-30 07:24:00,
2013-09-30 03:30:00,48.4,48.4,29.74,North,1,0.0,0.0,100,0.00,,,0.00,VWS V13.01,2013-09-30 07:30:00,
2013-09-30 03:36:00,48.2,48.2,29.74,North,1,0.0,0.0,100,0.00,,,0.00,VWS V13.01,2013-09-30 07:36:00,
2013-09-30 03:42:00,48.0,48.0,29.74,North,1,0.0,0.0,100,0.00,,,0.00,VWS V13.01,2013-09-30 07:42:00,
2013-09-30 03:48:00,48.0,48.0,29.74,North,1,0.0,0.0,100,0.00,,,0.00,VWS V13.01,2013-09-30 07:48:00,
2013-09-30 03:54:00,47.8,47.8,29.74,North,1,0.0,0.0,100,0.00,,,0.00,VWS V13.01,2013-09-30 07:54:00,
2013-09-30 04:00:00,47.5,47.5,29.74,North,1,0.0,0.0,100,0.00,,,0.00,VWS V13.01,2013-09-30 08:00:00,
2013-09-30 04:06:00,47.5,47.5,29.74,North,1,0.0,0.0,100,0.00,,,0.00,VWS V13.01,2013-09-30 08:06:00,
2013-09-30 04:12:00,47.3,47.3,29.74,North,1,0.0,0.0,100,0.00,,,0.00,VWS V13.01,2013-09-30 08:12:00,
2013-09-30 04:18:00,47.7,47.7,29.74,North,1,0.0,0.0,100,0.00,,,0.00,VWS V13.01,2013-09-30 08:18:00,
2013-09-30 04:24:00,47.3,47.3,29.74,North,1,0.0,0.0,100,0.00,,,0.00,VWS V13.01,2013-09-30 08:24:00,
2013-09-30 04:30:00,47.5,47.5,29.74,North,1,0.0,0.0,100,0.00,,,0.00,VWS V13.01,2013-09-30 08:30:00,
2013-09-30 04:36:00,48.0,48.0,29.74,North,1,0.0,0.0,100,0.00,,,0.00,VWS V13.01,2013-09-30 08:36:00,
2013-09-30 04:42:00,48.4,48.4,29.74,North,1,0.0,0.0,100,0.00,,,0.00,VWS V13.01,2013-09-30 08:42:00,
2013-09-30 04:48:00,48.2,48.2,29.74,North,1,0.0,0.0,100,0.00,,,0.00,VWS V13.01,2013-09-30 08:48:00,
2013-09-30 04:54:00,48.7,48.7,29.74,North,2,0.0,0.0,100,0.00,,,0.00,VWS V13.01,2013-09-30 08:54:00,
2013-09-30 05:00:00,48.6,48.6,29.74,North,2,0.0,0.0,100,0.00,,,0.00,VWS V13.01,2013-09-30 09:00:00,
2013-09-30 05:06:00,48.6,48.6,29.74,North,2,0.0,0.0,100,0.00,,,0.00,VWS V13.01,2013-09-30 09:06:00,
2013-09-30 05:12:00,48.6,48.6,29.74,North,2,0.0,0.0,100,0.00,,,0.00,VWS V13.01,2013-09-30 09:12:00,
2013-09-30 05:18:00,48.4,48.4,29.74,North,2,0.0,0.0,100,0.00,,,0.00,VWS V13.01,2013-09-30 09:18:00,
2013-09-30 05:24:00,48.0,48.0,29.74,North,2,0.0,0.0,100,0.00,,,0.00,VWS V13.01,2013-09-30 09:24:00,
2013-09-30 05:30:00,47.8,47.8,29.74,North,2,0.0,0.0,100,0.00,,,0.00,VWS V13.01,2013-09-30 09:30:00,
2013-09-30 05:36:00,47.7,47.7,29.74,North,2,0.0,0.0,100,0.00,,,0.00,VWS V13.01,2013-09-30 09:36:00,
2013-09-30 05:42:00,48.0,48.0,29.74,North,2,0.0,0.0,100,0.00,,,0.00,VWS V13.01,2013-09-30 09:42:00,
2013-09-30 05:48:00,48.6,48.6,29.74,North,2,0.0,0.0,100,0.00,,,0.00,VWS V13.01,2013-09-30 09:48:00,
2013-09-30 05:54:00,48.0,48.0,29.77,North,2,0.0,0.0,100,0.00,,,0.00,VWS V13.01,2013-09-30 09:54:00,
2013-09-30 06:00:00,47.8,47.8,29.77,North,2,0.0,0.0,100,0.00,,,0.00,VWS V13.01,2013-09-30 10:00:00,
2013-09-30 06:06:00,48.0,48.0,29.77,North,2,0.0,0.0,100,0.00,,,0.00,VWS V13.01,2013-09-30 10:06:00,
2013-09-30 06:12:00,47.5,47.5,29.77,North,2,0.0,0.0,100,0.00,,,0.00,VWS V13.01,2013-09-30 10:12:00,
2013-09-30 06:18:00,47.5,47.5,29.77,North,2,0.0,0.0,100,0.00,,,0.00,VWS V13.01,2013-09-30 10:18:00,
2013-09-30 06:24:00,47.5,47.5,29.77,North,2,0.0,0.0,100,0.00,,,0.00,VWS V13.01,2013-09-30 10:24:00,
2013-09-30 06:30:00,47.3,47.3,29.77,North,2,0.0,0.0,100,0.00,,,0.00,VWS V13.01,2013-09-30 10:30:00,
2013-09-30 06:36:00,47.8,47.8,29.77,North,2,0.0,0.0,100,0.00,,,0.00,VWS V13.01,2013-09-30 10:36:00,
2013-09-30 06:42:00,48.6,48.6,29.77,North,2,0.0,0.0,100,0.00,,,0.00,VWS V13.01,2013-09-30 10:42:00,
2013-09-30 06:48:00,49.1,49.1,29.77,North,2,0.0,0.0,100,0.00,,,0.00,VWS V13.01,2013-09-30 10:48:00,
2013-09-30 06:54:00,49.1,49.1,29.77,North,2,0.0,0.0,100,0.00,,,0.00,VWS V13.01,2013-09-30 10:54:00,
2013-09-30 07:00:00,48.7,48.7,29.77,North,2,0.0,0.0,100,0.00,,,0.00,VWS V13.01,2013-09-30 11:00:00,
2013-09-30 07:06:00,48.9,48.9,29.77,North,2,0.0,0.0,100,0.00,,,0.00,VWS V13.01,2013-09-30 11:06:00,
2013-09-30 07:12:00,49.6,49.6,29.77,North,2,0.0,0.0,100,0.00,,,0.00,VWS V13.01,2013-09-30 11:12:00,
2013-09-30 07:18:00,50.0,50.0,29.77,North,2,0.0,0.0,100,0.00,,,0.00,VWS V13.01,2013-09-30 11:18:00,
2013-09-30 07:24:00,50.4,50.4,29.77,North,2,0.0,0.0,100,0.00,,,0.00,VWS V13.01,2013-09-30 11:24:00,
2013-09-30 07:30:00,51.1,51.1,29.77,North,2,0.0,0.0,100,0.00,,,0.00,VWS V13.01,2013-09-30 11:30:00,
2013-09-30 07:36:00,52.3,52.3,29.77,North,2,0.0,0.0,100,0.00,,,0.00,VWS V13.01,2013-09-30 11:36:00,
2013-09-30 07:42:00,53.6,53.6,29.77,North,2,0.0,0.0,100,0.00,,,0.00,VWS V13.01,2013-09-30 11:42:00,
2013-09-30 07:48:00,55.6,55.6,29.77,North,2,0.0,0.0,100,0.00,,,0.00,VWS V13.01,2013-09-30 11:48:00,
2013-09-30 07:54:00,58.5,58.5,29.77,North,2,0.0,0.0,100,0.00,,,0.00,VWS V13.01,2013-09-30 11:54:00,
2013-09-30 08:00:00,60.3,60.3,29.77,North,2,0.0,0.0,100,0.00,,,0.00,VWS V13.01,2013-09-30 12:00:00,
2013-09-30 08:06:00,58.8,58.8,29.77,North,2,0.0,0.0,100,0.00,,,0.00,VWS V13.01,2013-09-30 12:06:00,
2013-09-30 08:12:00,57.4,57.4,29.77,North,2,0.0,0.0,100,0.00,,,0.00,VWS V13.01,2013-09-30 12:12:00,
2013-09-30 08:18:00,56.3,56.3,29.77,North,2,0.0,0.0,100,0.00,,,0.00,VWS V13.01,2013-09-30 12:18:00,
2013-09-30 08:24:00,55.9,55.9,29.77,North,2,0.0,0.0,100,0.00,,,0.00,VWS V13.01,2013-09-30 12:24:00,
2013-09-30 08:30:00,55.9,55.9,29.77,North,2,0.0,0.0,100,0.00,,,0.00,VWS V13.01,2013-09-30 12:30:00,
2013-09-30 08:38:00,55.9,55.9,29.77,North,2,0.0,0.0,100,0.00,,,0.00,VWS V13.01,2013-09-30 12:38:00,
2013-09-30 08:44:00,58.8,58.8,29.77,North,2,0.0,0.0,100,0.00,,,0.00,VWS V13.01,2013-09-30 12:44:00,
2013-09-30 08:50:00,58.3,58.3,29.77,North,2,0.0,0.0,100,0.00,,,0.00,VWS V13.01,2013-09-30 12:50:00,
2013-09-30 08:56:00,57.4,57.4,29.77,North,2,0.0,0.0,100,0.00,,,0.00,VWS V13.01,2013-09-30 12:56:00,
2013-09-30 09:02:00,56.7,56.7,29.77,North,2,0.0,0.0,100,0.00,,,0.00,VWS V13.01,2013-09-30 13:02:00,
2013-09-30 09:08:00,56.8,56.8,29.77,North,2,0.0,0.0,100,0.00,,,0.00,VWS V13.01,2013-09-30 13:08:00,
2013-09-30 09:14:00,57.2,57.2,29.77,North,2,0.0,0.0,100,0.00,,,0.00,VWS V13.01,2013-09-30 13:14:00,
2013-09-30 09:20:00,58.1,58.1,29.80,WSW,255,0.0,0.0,100,0.00,,,0.00,VWS V13.01,2013-09-30 13:20:00,
2013-09-30 09:26:00,59.9,59.9,29.80,WSW,255,0.0,0.0,100,0.00,,,0.00,VWS V13.01,2013-09-30 13:26:00,
2013-09-30 09:32:00,64.4,64.4,29.80,WSW,255,0.0,0.0,100,0.00,,,0.00,VWS V13.01,2013-09-30 13:32:00,
2013-09-30 09:38:00,66.6,66.6,29.77,WSW,256,0.0,0.0,100,0.00,,,0.00,VWS V13.01,2013-09-30 13:38:00,
2013-09-30 09:44:00,68.4,68.4,29.77,North,2,0.0,0.0,100,0.00,,,0.00,VWS V13.01,2013-09-30 13:44:00,
2013-09-30 09:50:00,74.5,74.5,29.77,North,357,0.0,0.0,100,0.00,,,0.00,VWS V13.01,2013-09-30 13:50:00,
2013-09-30 09:56:00,78.1,63.1,29.77,North,2,0.0,0.0,60,0.00,,,0.00,VWS V13.01,2013-09-30 13:56:00,
2013-09-30 10:02:00,80.8,63.6,29.77,North,357,0.0,0.0,56,0.00,,,0.00,VWS V13.01,2013-09-30 14:02:00,
2013-09-30 10:08:00,77.2,62.2,29.77,NE,35,0.0,6.3,60,0.00,,,0.00,VWS V13.01,2013-09-30 14:08:00,
2013-09-30 10:14:00,73.4,60.5,29.77,NE,35,0.0,0.0,64,0.00,,,0.00,VWS V13.01,2013-09-30 14:14:00,
2013-09-30 10:20:00,73.6,60.7,29.77,NE,35,0.0,0.0,64,0.00,,,0.00,VWS V13.01,2013-09-30 14:20:00,
2013-09-30 10:26:00,70.7,59.6,29.77,NNE,29,0.0,0.0,68,0.00,,,0.00,VWS V13.01,2013-09-30 14:26:00,
2013-09-30 10:32:00,66.9,60.6,29.77,NNE,29,0.0,0.0,80,0.00,,,0.00,VWS V13.01,2013-09-30 14:32:00,
2013-09-30 10:38:00,68.9,65.2,29.77,NNE,29,0.0,0.0,88,0.00,,,0.00,VWS V13.01,2013-09-30 14:38:00,
2013-09-30 10:44:00,72.7,59.8,29.77,WNW,303,4.0,6.3,64,0.00,,,0.00,VWS V13.01,2013-09-30 14:44:00,
2013-09-30 10:50:00,75.4,60.5,29.77,West,280,0.0,5.4,60,0.00,,,0.00,VWS V13.01,2013-09-30 14:50:00,
2013-09-30 10:56:00,74.8,61.9,29.77,NNW,340,6.0,8.1,64,0.00,,,0.00,VWS V13.01,2013-09-30 14:56:00,
2013-09-30 11:02:00,73.2,60.3,29.77,NNE,25,0.0,9.8,64,0.00,,,0.00,VWS V13.01,2013-09-30 15:02:00,
2013-09-30 11:08:00,77.2,62.2,29.77,NW,304,0.0,6.3,60,0.00,,,0.00,VWS V13.01,2013-09-30 15:08:00,
2013-09-30 11:14:00,78.4,63.4,29.77,SW,223,5.4,7.2,60,0.00,,,0.00,VWS V13.01,2013-09-30 15:14:00,
2013-09-30 11:20:00,77.7,62.7,29.77,WSW,245,0.0,0.0,60,0.00,,,0.00,VWS V13.01,2013-09-30 15:20:00,
2013-09-30 11:26:00,74.8,61.9,29.77,NNW,343,5.4,11.6,64,0.00,,,0.00,VWS V13.01,2013-09-30 15:26:00,
2013-09-30 11:32:00,77.0,62.1,29.77,North,9,0.0,6.3,60,0.00,,,0.00,VWS V13.01,2013-09-30 15:32:00,
2013-09-30 11:38:00,80.2,65.1,29.77,WNW,285,6.0,8.1,60,0.00,,,0.00,VWS V13.01,2013-09-30 15:38:00,
2013-09-30 11:44:00,78.8,63.8,29.77,NW,311,0.0,0.0,60,0.00,,,0.00,VWS V13.01,2013-09-30 15:44:00,
2013-09-30 11:50:00,79.7,64.6,29.77,NNE,17,0.0,0.0,60,0.00,,,0.00,VWS V13.01,2013-09-30 15:50:00,
2013-09-30 11:56:00,81.0,63.8,29.77,SSW,192,0.0,0.0,56,0.00,,,0.00,VWS V13.01,2013-09-30 15:56:00,
2013-09-30 12:02:00,80.2,65.1,29.77,South,189,4.7,8.1,60,0.00,,,0.00,VWS V13.01,2013-09-30 16:02:00,
2013-09-30 12:08:00,80.6,59.1,29.74,NNW,327,0.0,6.3,48,0.00,,,0.00,VWS V13.01,2013-09-30 16:08:00,
2013-09-30 12:14:00,74.8,56.0,29.74,NNW,341,5.4,12.5,52,0.00,,,0.00,VWS V13.01,2013-09-30 16:14:00,
2013-09-30 12:20:00,75.7,56.9,29.74,WNW,294,4.0,10.7,52,0.00,,,0.00,VWS V13.01,2013-09-30 16:20:00,
2013-09-30 12:26:00,80.8,63.6,29.74,ESE,122,3.4,6.3,56,0.00,,,0.00,VWS V13.01,2013-09-30 16:26:00,
2013-09-30 12:32:00,84.7,65.2,29.74,SSE,165,0.0,0.0,52,0.00,,,0.00,VWS V13.01,2013-09-30 16:32:00,
2013-09-30 12:38:00,83.7,66.3,29.74,SE,133,3.4,7.2,56,0.00,,,0.00,VWS V13.01,2013-09-30 16:38:00,
2013-09-30 12:44:00,82.8,65.5,29.74,SW,217,0.0,8.1,56,0.00,,,0.00,VWS V13.01,2013-09-30 16:44:00,
2013-09-30 12:50:00,79.5,64.4,29.74,North,5,5.4,8.1,60,0.00,,,0.00,VWS V13.01,2013-09-30 16:50:00,
2013-09-30 12:56:00,81.9,64.6,29.74,SSW,206,5.4,11.6,56,0.00,,,0.00,VWS V13.01,2013-09-30 16:56:00,
2013-09-30 13:02:00,81.5,64.3,29.74,SW,221,4.0,6.3,56,0.00,,,0.00,VWS V13.01,2013-09-30 17:02:00,
2013-09-30 13:08:00,82.9,65.7,29.74,NW,318,4.7,10.7,56,0.00,,,0.00,VWS V13.01,2013-09-30 17:08:00,
2013-09-30 13:14:00,82.8,65.5,29.74,SW,229,8.1,10.7,56,0.00,,,0.00,VWS V13.01,2013-09-30 17:14:00,
2013-09-30 13:20:00,82.9,65.7,29.74,West,278,5.4,8.1,56,0.00,,,0.00,VWS V13.01,2013-09-30 17:20:00,
2013-09-30 13:26:00,84.0,66.7,29.74,WNW,299,0.0,4.5,56,0.00,,,0.00,VWS V13.01,2013-09-30 17:26:00,
2013-09-30 13:32:00,84.0,66.7,29.74,SSW,193,0.0,7.2,56,0.00,,,0.00,VWS V13.01,2013-09-30 17:32:00,
2013-09-30 13:38:00,83.3,66.0,29.71,ESE,118,4.7,6.3,56,0.00,,,0.00,VWS V13.01,2013-09-30 17:38:00,
2013-09-30 13:44:00,81.7,64.5,29.71,SSW,209,0.0,9.8,56,0.00,,,0.00,VWS V13.01,2013-09-30 17:44:00,
2013-09-30 13:50:00,79.5,64.4,29.71,ENE,68,4.7,15.2,60,0.00,,,0.00,VWS V13.01,2013-09-30 17:50:00,
2013-09-30 13:56:00,81.0,63.8,29.71,SW,217,4.7,9.8,56,0.00,,,0.00,VWS V13.01,2013-09-30 17:56:00,
2013-09-30 14:02:00,84.2,64.7,29.71,NNW,344,4.7,6.3,52,0.00,,,0.00,VWS V13.01,2013-09-30 18:02:00,
2013-09-30 14:08:00,85.5,65.8,29.71,WNW,288,0.0,7.2,52,0.00,,,0.00,VWS V13.01,2013-09-30 18:08:00,
2013-09-30 14:14:00,85.5,65.8,29.71,SSW,207,5.4,7.2,52,0.00,,,0.00,VWS V13.01,2013-09-30 18:14:00,
2013-09-30 14:20:00,80.8,63.6,29.71,WNW,295,3.4,9.8,56,0.00,,,0.00,VWS V13.01,2013-09-30 18:20:00,
2013-09-30 14:26:00,85.6,66.0,29.71,SE,143,0.0,0.0,52,0.00,,,0.00,VWS V13.01,2013-09-30 18:26:00,
2013-09-30 14:32:00,84.7,65.2,29.71,SSW,211,0.0,0.0,52,0.00,,,0.00,VWS V13.01,2013-09-30 18:32:00,
2013-09-30 14:38:00,80.4,59.0,29.71,SW,227,4.7,6.3,48,0.00,,,0.00,VWS V13.01,2013-09-30 18:38:00,
2013-09-30 14:44:00,73.9,55.2,29.71,SW,216,0.0,7.2,52,0.00,,,0.00,VWS V13.01,2013-09-30 18:44:00,
2013-09-30 14:50:00,80.2,58.8,29.71,SSW,195,0.0,0.0,48,0.00,,,0.00,VWS V13.01,2013-09-30 18:50:00,
2013-09-30 14:56:00,81.3,64.1,29.71,SSE,148,0.0,7.2,56,0.00,,,0.00,VWS V13.01,2013-09-30 18:56:00,
2013-09-30 15:02:00,85.8,66.2,29.71,SSE,149,0.0,0.0,52,0.00,,,0.00,VWS V13.01,2013-09-30 19:02:00,
2013-09-30 15:08:00,88.0,68.2,29.71,North,357,5.4,7.2,52,0.00,,,0.00,VWS V13.01,2013-09-30 19:08:00,
2013-09-30 15:14:00,81.0,63.8,29.71,South,187,4.0,8.1,56,0.00,,,0.00,VWS V13.01,2013-09-30 19:14:00,
2013-09-30 15:20:00,81.3,64.1,29.71,WSW,238,0.0,9.8,56,0.00,,,0.00,VWS V13.01,2013-09-30 19:20:00,
2013-09-30 15:26:00,84.0,66.7,29.71,NNE,21,0.0,8.1,56,0.00,,,0.00,VWS V13.01,2013-09-30 19:26:00,
2013-09-30 15:32:00,82.9,65.7,29.71,SW,221,0.0,8.1,56,0.00,,,0.00,VWS V13.01,2013-09-30 19:32:00,
2013-09-30 15:38:00,84.4,64.8,29.68,North,11,0.0,0.0,52,0.00,,,0.00,VWS V13.01,2013-09-30 19:38:00,
2013-09-30 15:44:00,85.3,65.7,29.68,WNW,299,0.0,0.0,52,0.00,,,0.00,VWS V13.01,2013-09-30 19:44:00,
2013-09-30 15:50:00,86.5,66.8,29.68,WNW,301,0.0,7.2,52,0.00,,,0.00,VWS V13.01,2013-09-30 19:50:00,
2013-09-30 15:56:00,77.9,58.9,29.68,SSW,207,0.0,7.2,52,0.00,,,0.00,VWS V13.01,2013-09-30 19:56:00,
2013-09-30 16:02:00,79.5,58.1,29.68,SSW,207,0.0,0.0,48,0.00,,,0.00,VWS V13.01,2013-09-30 20:02:00,
2013-09-30 16:08:00,83.7,66.3,29.68,SSW,207,0.0,0.0,56,0.00,,,0.00,VWS V13.01,2013-09-30 20:08:00,
2013-09-30 16:14:00,83.7,66.3,29.68,NNE,31,0.0,8.1,56,0.00,,,0.00,VWS V13.01,2013-09-30 20:14:00,
2013-09-30 16:20:00,84.6,65.0,29.68,SSE,168,0.0,0.0,52,0.00,,,0.00,VWS V13.01,2013-09-30 20:20:00,
2013-09-30 16:26:00,84.0,66.7,29.68,NNW,328,3.4,7.2,56,0.00,,,0.00,VWS V13.01,2013-09-30 20:26:00,
2013-09-30 16:32:00,82.2,65.0,29.68,NW,314,3.4,9.8,56,0.00,,,0.00,VWS V13.01,2013-09-30 20:32:00,
2013-09-30 16:38:00,80.4,65.3,29.68,SW,230,0.0,0.0,60,0.00,,,0.00,VWS V13.01,2013-09-30 20:38:00,
2013-09-30 16:44:00,82.0,64.8,29.68,NNW,341,0.0,6.3,56,0.00,,,0.00,VWS V13.01,2013-09-30 20:44:00,
2013-09-30 16:50:00,81.0,59.4,29.68,North,357,4.0,10.7,48,0.00,,,0.00,VWS V13.01,2013-09-30 20:50:00,
2013-09-30 16:56:00,81.7,64.5,29.68,North,2,0.0,0.0,56,0.00,,,0.00,VWS V13.01,2013-09-30 20:56:00,
2013-09-30 17:02:00,84.4,64.8,29.68,NNE,19,0.0,0.0,52,0.00,,,0.00,VWS V13.01,2013-09-30 21:02:00,
2013-09-30 17:08:00,82.6,65.3,29.68,NNE,19,0.0,0.0,56,0.00,,,0.00,VWS V13.01,2013-09-30 21:08:00,
2013-09-30 17:14:00,81.0,63.8,29.68,North,3,0.0,0.0,56,0.00,,,0.00,VWS V13.01,2013-09-30 21:14:00,
2013-09-30 17:20:00,79.9,58.5,29.68,NNW,328,4.0,7.2,48,0.00,,,0.00,VWS V13.01,2013-09-30 21:20:00,
2013-09-30 17:26:00,79.0,57.6,29.68,NW,319,0.0,0.0,48,0.00,,,0.00,VWS V13.01,2013-09-30 21:26:00,
2013-09-30 17:32:00,78.1,59.0,29.68,NNW,328,0.0,0.0,52,0.00,,,0.00,VWS V13.01,2013-09-30 21:32:00,
2013-09-30 17:38:00,77.7,58.7,29.68,NNW,329,0.0,0.0,52,0.00,,,0.00,VWS V13.01,2013-09-30 21:38:00,
2013-09-30 17:44:00,76.6,57.7,29.68,NNW,329,0.0,0.0,52,0.00,,,0.00,VWS V13.01,2013-09-30 21:44:00,
2013-09-30 17:50:00,76.1,57.2,29.68,NNW,329,0.0,0.0,52,0.00,,,0.00,VWS V13.01,2013-09-30 21:50:00,
2013-09-30 17:56:00,74.7,55.9,29.68,NNW,329,0.0,0.0,52,0.00,,,0.00,VWS V13.01,2013-09-30 21:56:00,
2013-09-30 18:02:00,73.0,56.4,29.68,NNW,329,0.0,0.0,56,0.00,,,0.00,VWS V13.01,2013-09-30 22:02:00,
2013-09-30 18:08:00,72.1,55.6,29.68,NNW,329,0.0,0.0,56,0.00,,,0.00,VWS V13.01,2013-09-30 22:08:00,
2013-09-30 18:14:00,70.2,53.8,29.68,NNW,329,0.0,0.0,56,0.00,,,0.00,VWS V13.01,2013-09-30 22:14:00,
2013-09-30 18:20:00,68.5,54.1,29.68,NNW,329,0.0,0.0,60,0.00,,,0.00,VWS V13.01,2013-09-30 22:20:00,
2013-09-30 18:26:00,66.0,51.8,29.68,NNW,329,0.0,0.0,60,0.00,,,0.00,VWS V13.01,2013-09-30 22:26:00,
2013-09-30 18:32:00,64.6,50.4,29.68,NNW,329,0.0,0.0,60,0.00,,,0.00,VWS V13.01,2013-09-30 22:32:00,
2013-09-30 18:38:00,63.9,51.5,29.68,NNW,329,0.0,0.0,64,0.00,,,0.00,VWS V13.01,2013-09-30 22:38:00,
2013-09-30 18:44:00,62.6,53.5,29.68,NNW,329,0.0,0.0,72,0.00,,,0.00,VWS V13.01,2013-09-30 22:44:00,
2013-09-30 18:50:00,61.5,53.9,29.68,NNW,329,0.0,0.0,76,0.00,,,0.00,VWS V13.01,2013-09-30 22:50:00,
2013-09-30 18:56:00,60.6,60.6,29.68,NNW,329,0.0,0.0,100,0.00,,,0.00,VWS V13.01,2013-09-30 22:56:00,
2013-09-30 19:02:00,60.1,60.1,29.68,NNW,329,0.0,0.0,100,0.00,,,0.00,VWS V13.01,2013-09-30 23:02:00,
2013-09-30 19:08:00,59.5,59.5,29.68,NNW,329,0.0,0.0,100,0.00,,,0.00,VWS V13.01,2013-09-30 23:08:00,
2013-09-30 19:14:00,59.2,59.2,29.68,NNW,329,0.0,0.0,100,0.00,,,0.00,VWS V13.01,2013-09-30 23:14:00,
2013-09-30 19:20:00,58.8,58.8,29.68,NNW,329,0.0,0.0,100,0.00,,,0.00,VWS V13.01,2013-09-30 23:20:00,
2013-09-30 19:26:00,58.6,58.6,29.68,NNW,329,0.0,0.0,100,0.00,,,0.00,VWS V13.01,2013-09-30 23:26:00,
2013-09-30 19:32:00,58.3,58.3,29.68,NNW,329,0.0,0.0,100,0.00,,,0.00,VWS V13.01,2013-09-30 23:32:00,
2013-09-30 19:38:00,58.1,58.1,29.68,NNW,329,0.0,0.0,100,0.00,,,0.00,VWS V13.01,2013-09-30 23:38:00,
2013-09-30 19:44:00,57.7,57.7,29.68,NNW,329,0.0,0.0,100,0.00,,,0.00,VWS V13.01,2013-09-30 23:44:00,
2013-09-30 19:50:00,57.2,57.2,29.68,NNW,329,0.0,0.0,100,0.00,,,0.00,VWS V13.01,2013-09-30 23:50:00,
2013-09-30 19:56:00,57.4,57.4,29.68,NNW,329,0.0,0.0,100,0.00,,,0.00,VWS V13.01,2013-09-30 23:56:00,
2013-09-30 20:02:00,57.0,57.0,29.68,NNW,329,0.0,0.0,100,0.00,,,0.00,VWS V13.01,2013-10-01 00:02:00,
2013-09-30 20:08:00,56.5,56.5,29.68,NNW,329,0.0,0.0,100,0.00,,,0.00,VWS V13.01,2013-10-01 00:08:00,
2013-09-30 20:14:00,56.1,56.1,29.68,NNW,329,0.0,0.0,100,0.00,,,0.00,VWS V13.01,2013-10-01 00:14:00,
2013-09-30 20:20:00,56.3,56.3,29.68,NNW,329,0.0,0.0,100,0.00,,,0.00,VWS V13.01,2013-10-01 00:20:00,
2013-09-30 20:26:00,55.8,55.8,29.68,NNW,329,0.0,0.0,100,0.00,,,0.00,VWS V13.01,2013-10-01 00:26:00,
2013-09-30 20:32:00,55.4,55.4,29.68,NNW,329,0.0,0.0,100,0.00,,,0.00,VWS V13.01,2013-10-01 00:32:00,
2013-09-30 20:38:00,55.0,55.0,29.71,NNW,329,0.0,0.0,100,0.00,,,0.00,VWS V13.01,2013-10-01 00:38:00,
2013-09-30 20:44:00,54.9,54.9,29.71,NNW,329,0.0,0.0,100,0.00,,,0.00,VWS V13.01,2013-10-01 00:44:00,
2013-09-30 20:50:00,54.7,54.7,29.71,NNW,329,0.0,0.0,100,0.00,,,0.00,VWS V13.01,2013-10-01 00:50:00,
2013-09-30 20:56:00,54.7,54.7,29.71,NNW,329,0.0,0.0,100,0.00,,,0.00,VWS V13.01,2013-10-01 00:56:00,
2013-09-30 21:02:00,54.7,54.7,29.71,NNW,329,0.0,0.0,100,0.00,,,0.00,VWS V13.01,2013-10-01 01:02:00,
2013-09-30 21:10:00,54.7,54.7,29.71,NNW,329,0.0,0.0,100,0.00,,,0.00,VWS V13.01,2013-10-01 01:10:00,
2013-09-30 21:16:00,54.5,54.5,29.71,NNW,329,0.0,0.0,100,0.00,,,0.00,VWS V13.01,2013-10-01 01:16:00,
2013-09-30 21:22:00,54.3,54.3,29.68,NNW,329,0.0,0.0,100,0.00,,,0.00,VWS V13.01,2013-10-01 01:22:00,
2013-09-30 21:28:00,54.1,54.1,29.68,NNW,329,0.0,0.0,100,0.00,,,0.00,VWS V13.01,2013-10-01 01:28:00,
2013-09-30 21:34:00,54.1,54.1,29.68,NNW,329,0.0,0.0,100,0.00,,,0.00,VWS V13.01,2013-10-01 01:34:00,
2013-09-30 21:40:00,54.5,54.5,29.68,NNW,329,0.0,0.0,100,0.00,,,0.00,VWS V13.01,2013-10-01 01:40:00,
2013-09-30 21:46:00,54.5,54.5,29.68,NNW,329,0.0,0.0,100,0.00,,,0.00,VWS V13.01,2013-10-01 01:46:00,
2013-09-30 21:52:00,54.3,54.3,29.68,NNW,329,0.0,0.0,100,0.00,,,0.00,VWS V13.01,2013-10-01 01:52:00,
2013-09-30 21:58:00,54.0,54.0,29.68,NNW,329,0.0,0.0,100,0.00,,,0.00,VWS V13.01,2013-10-01 01:58:00,
2013-09-30 22:04:00,54.1,54.1,29.68,NNW,329,0.0,0.0,100,0.00,,,0.00,VWS V13.01,2013-10-01 02:04:00,
2013-09-30 22:10:00,54.1,54.1,29.68,NNW,329,0.0,0.0,100,0.00,,,0.00,VWS V13.01,2013-10-01 02:10:00,
2013-09-30 22:16:00,54.3,54.3,29.68,NNW,329,0.0,0.0,100,0.00,,,0.00,VWS V13.01,2013-10-01 02:16:00,
2013-09-30 22:22:00,54.1,54.1,29.68,NNW,329,0.0,0.0,100,0.00,,,0.00,VWS V13.01,2013-10-01 02:22:00,
2013-09-30 22:28:00,54.0,54.0,29.68,NNW,329,0.0,0.0,100,0.00,,,0.00,VWS V13.01,2013-10-01 02:28:00,
2013-09-30 22:34:00,54.0,54.0,29.68,NNW,329,0.0,0.0,100,0.00,,,0.00,VWS V13.01,2013-10-01 02:34:00,
2013-09-30 22:40:00,54.0,54.0,29.68,NNW,329,0.0,0.0,100,0.00,,,0.00,VWS V13.01,2013-10-01 02:40:00,
2013-09-30 22:46:00,53.8,53.8,29.68,NNW,329,0.0,0.0,100,0.00,,,0.00,VWS V13.01,2013-10-01 02:46:00,
2013-09-30 22:52:00,53.6,53.6,29.68,NNW,329,0.0,0.0,100,0.00,,,0.00,VWS V13.01,2013-10-01 02:52:00,
2013-09-30 22:58:00,53.6,53.6,29.68,NNW,329,0.0,0.0,100,0.00,,,0.00,VWS V13.01,2013-10-01 02:58:00,
2013-09-30 23:04:00,53.4,53.4,29.68,NNW,329,0.0,0.0,100,0.00,,,0.00,VWS V13.01,2013-10-01 03:04:00,
2013-09-30 23:10:00,53.4,53.4,29.68,NNW,329,0.0,0.0,100,0.00,,,0.00,VWS V13.01,2013-10-01 03:10:00,
2013-09-30 23:16:00,53.1,53.1,29.68,NNW,329,0.0,0.0,100,0.00,,,0.00,VWS V13.01,2013-10-01 03:16:00,
2013-09-30 23:22:00,53.4,53.4,29.68,NNW,329,0.0,0.0,100,0.00,,,0.00,VWS V13.01,2013-10-01 03:22:00,
2013-09-30 23:28:00,53.2,53.2,29.68,NNW,329,0.0,0.0,100,0.00,,,0.00,VWS V13.01,2013-10-01 03:28:00,
2013-09-30 23:34:00,53.1,53.1,29.68,NNW,329,0.0,0.0,100,0.00,,,0.00,VWS V13.01,2013-10-01 03:34:00,
2013-09-30 23:40:00,52.9,52.9,29.68,NNW,329,0.0,0.0,100,0.00,,,0.00,VWS V13.01,2013-10-01 03:40:00,
2013-09-30 23:46:00,52.9,52.9,29.68,NNW,329,0.0,0.0,100,0.00,,,0.00,VWS V13.01,2013-10-01 03:46:00,
2013-09-30 23:52:00,53.1,53.1,29.68,NNW,329,0.0,0.0,100,0.00,,,0.00,VWS V13.01,2013-10-01 03:52:00,
2013-09-30 23:58:00,53.4,53.4,29.68,NNW,329,0.0,0.0,100,0.00,,,0.00,VWS V13.01,2013-10-01 03:58:00,